Pagina principale
METAR-TAF:

METAR-TAF

Aeroporti :

Alpnach, Svizzera

latitudine: 46-56-19N, longitudine: 8-17-03E, altezza: 440 m

Osservazione

Il bollettino è stato emesso 12 minuti fa, alle 16:50 UTC
Vento 12 kt da sud-ovest, variando fra sud e ovest
Temperature 20°C
Umidità 43%
Pressione 1009 hPa
Visibilità 10 km o più
Poco nuvoloso ad un'altezza di 8300 ft
Nubi sparse ad un'altezza di 9800 ft

METAR: LSMA 151650Z AUTO 22012KT 190V260 9999NDV FEW083 SCT098 20/07 Q1009 RMK

Ora: 19:02 (17:02 UTC)


TAF: mancante

Osservazioni e previsioni meteorologiche di più di 4000 aeroporti (messaggi METAR e TAF).

Le stazioni disponibili sono rappresentate dai dischi gialli e rossi sulla carta.

Puntare il mouse per vedere il nome della stazione.

Clicca sopra per visualizzare le osservazioni e previsioni meteorologiche.

Per cambiare la mappa : fare clic sui pulsanti verdi con una croce nera per ingrandire, il pulsante verde con un trattino per diminuire, o sulla freccia verde per le mappe adiacenti.


METAR-TAF: